Weather History for Covington, KY

Change the Weather History Date:

Monday, September 16, 2013

  Actual Average Record
Temperature  
Mean Temperature 67 °F 68 °F  
Max Temperature 74 °F 78 °F 96 °F (1897)
Min Temperature 60 °F 57 °F 40 °F (1916)
Degree Days  
Heating Degree Days 0 2  
Month to date heating degree days 10 11  
Since 1 July heating degree days 14 11  
Cooling Degree Days 2 4  
Month to date cooling degree days 115 98  
Year to date cooling degree days 1091 1066  
Growing Degree Days 17 (Base 50)    
Moisture  
Dew Point 57 °F    
Average Humidity 72    
Maximum Humidity 90    
Minimum Humidity 53    
Precipitation  
Precipitation T in 0.09 in 1.65 in (1996)
Month to date precipitation 0.16 1.41  
Year to date precipitation 33.21 31.20  
Snow  
Snow 0.00 in 0.00 in - ()
Month to date snowfall 0.0 0.0  
Since 1 July snowfall 0.0 0.0  
Since 1 September snowfall 0.0 0.0  
Snow Depth 0.00 in    
Sea Level Pressure  
Sea Level Pressure 30.19 in    
Wind  
Wind Speed 8 mph (NE)    
Max Wind Speed 14 mph    
Max Gust Speed 17 mph    
Visibility 10 miles    
Events Rain    
T = Trace of Precipitation, MM = Missing Value Source: NWS Daily Summary

Daily Weather History Graph

Daily Weather History Graph

Search for Another Location

Airport:

Trip Planner

Search our weather history database for the weather conditions in past years. The results will help you decide how hot, cold, wet, or windy it might be!

Date:

Astronomy

Sep. 16, 2013 Rise Set
Actual Time 7:21 AM EDT 7:45 PM EDT
Civil Twilight 6:54 AM EDT 8:11 PM EDT
Nautical Twilight 6:22 AM EDT 8:43 PM EDT
Astronomical Twilight 5:50 AM EDT 9:15 PM EDT
Moon 5:52 PM EDT (9/16) 4:07 AM EDT (9/16)
Length of Visible Light 13h 17m
Length of Day
12h 23m
Waxing Gibbous, 90% of the Moon is Illuminated
Sep 16
Waxing Gibbous
Sep 19
Full
Sep 26
Last Quarter
Oct 4
New
Oct 11
First Quarter

Hourly Weather History & Observations

Time (EDT) Temp. Dew Point Humidity Pressure Visibility Wind Dir Wind Speed Gust Speed Precip Events Conditions
12:52 AM 64.9 °F 61.0 °F 87% 30.08 in 10.0 mi NNE 5.8 mph - 0.05 in   Overcast
1:52 AM 64.9 °F 59.0 °F 81% 30.08 in 10.0 mi NE 6.9 mph - 0.00 in   Overcast
2:52 AM 62.1 °F 59.0 °F 90% 30.10 in 7.0 mi North 10.4 mph - 0.00 in Rain Light Rain
3:52 AM 63.0 °F 57.9 °F 84% 30.10 in 10.0 mi ENE 6.9 mph - 0.00 in   Overcast
4:52 AM 61.0 °F 57.9 °F 90% 30.11 in 10.0 mi East 4.6 mph - 0.00 in   Overcast
5:52 AM 61.0 °F 57.9 °F 90% 30.13 in 10.0 mi East 3.5 mph - 0.00 in   Overcast
6:52 AM 61.0 °F 57.9 °F 90% 30.15 in 10.0 mi ESE 3.5 mph - N/A   Overcast
7:52 AM 61.0 °F 57.9 °F 90% 30.16 in 10.0 mi East 5.8 mph - N/A   Overcast
8:52 AM 62.1 °F 57.9 °F 86% 30.17 in 10.0 mi East 8.1 mph - N/A   Overcast
9:01 AM 62.6 °F 59.0 °F 88% 30.20 in 10.0 mi NNE 4.6 mph - N/A   Overcast
9:25 AM 62.6 °F 59.0 °F 88% 30.21 in 10.0 mi NE 6.9 mph - N/A   Overcast
9:45 AM 62.6 °F 59.0 °F 88% 30.21 in 10.0 mi NNE 9.2 mph - N/A   Overcast
9:52 AM 63.0 °F 57.9 °F 84% 30.19 in 9.0 mi NNE 9.2 mph - N/A   Overcast
10:52 AM 66.0 °F 59.0 °F 78% 30.22 in 10.0 mi NE 6.9 mph - N/A   Overcast
11:22 AM 64.4 °F 57.2 °F 77% 30.24 in 10.0 mi NNE 11.5 mph - N/A   Overcast
11:52 AM 66.0 °F 57.0 °F 73% 30.23 in 10.0 mi NE 8.1 mph - N/A   Overcast
12:38 PM 66.2 °F 57.2 °F 73% 30.25 in 10.0 mi ENE 10.4 mph - N/A   Overcast
12:52 PM 68.0 °F 57.0 °F 68% 30.24 in 10.0 mi ENE 9.2 mph - N/A   Overcast
1:52 PM 66.9 °F 55.9 °F 68% 30.25 in 10.0 mi ENE 10.4 mph - N/A   Overcast
2:05 PM 66.2 °F 55.4 °F 68% 30.26 in 10.0 mi ENE 9.2 mph - N/A   Overcast
2:52 PM 69.1 °F 55.9 °F 63% 30.23 in 10.0 mi ENE 9.2 mph - N/A   Overcast
3:52 PM 70.0 °F 55.0 °F 59% 30.22 in 10.0 mi NE 8.1 mph - N/A   Mostly Cloudy
4:52 PM 72.0 °F 55.0 °F 55% 30.21 in 10.0 mi NE 8.1 mph - N/A   Mostly Cloudy
5:52 PM 71.1 °F 54.0 °F 55% 30.21 in 10.0 mi NE 5.8 mph - N/A   Mostly Cloudy
6:52 PM 70.0 °F 52.0 °F 53% 30.21 in 10.0 mi ENE 10.4 mph - N/A   Scattered Clouds
7:52 PM 68.0 °F 54.0 °F 61% 30.21 in 10.0 mi NE 11.5 mph - N/A   Partly Cloudy
8:52 PM 66.0 °F 53.1 °F 63% 30.23 in 10.0 mi NE 10.4 mph - N/A   Clear
9:52 PM 64.0 °F 52.0 °F 65% 30.25 in 10.0 mi NE 8.1 mph - N/A   Clear
10:52 PM 62.1 °F 53.1 °F 72% 30.26 in 10.0 mi NNE 11.5 mph - N/A   Clear
11:52 PM 61.0 °F 52.0 °F 72% 30.27 in 10.0 mi NE 8.1 mph - N/A   Clear